Back to catalog

KUIPER-00225

AliveCommunicationsLEO
NORAD 67784·PAYLOAD·🇺🇸 United States

Launched Feb 12, 2026 from Guiana Space Centre

Loading…

Next Passes (next 24 hours)

TLE

FreshSource: CelesTrak SupGP

Epoch: Sep 14, 2026, 14:34 UTC

1 67784C 26030W   26257.60740741 -.00001025  00000+0 -13414-3 0  2576
2 67784  51.8973  82.8090 0000692 102.9966  28.5061 14.79925086    18

Track KUIPER-00225 in real time with AllMySat

Download on the App Store